PA3DZX-13 Weather Reports


time (UTC)temp
C
wind
direction
speed
KPH
gust
KPH
rain 1hr
cm
rain 24hr
cm
rain mn
cm
humidity
%
barometer
mb
20260503232325 11 209 6.4 9.7 0.00 0.00 0.00 98 1011.5
20260503230825 12 208 6.4 9.7 0.00 0.00 0.00 97 1011.4
20260503225323 12 207 6.4 9.7 0.00 0.00 0.00 97 1011.4
20260503223823 12 197 6.4 9.7 0.00 0.00 0.00 97 1011.4
20260503222323 12 196 6.4 9.7 0.00 0.00 0.00 97 1011.4
20260503220823 13 192 3.2 6.4 0.00 0.00 0.00 97 1011.4
20260503215322 12 194 3.2 6.4 0.00 0.00 0.00 97 1011.4
20260503213822 12 194 3.2 9.7 0.00 0.00 0.00 97 1011.3
20260503212322 12 195 6.4 9.7 0.00 0.00 0.00 97 1011.3
20260503210822 13 198 6.4 9.7 0.00 0.00 0.00 96 1011.4
20260503205320 13 198 6.4 9.7 0.00 0.00 0.00 96 1011.4
20260503203820 13 199 6.4 12.9 0.00 0.00 0.00 96 1011.5
20260503202320 13 200 9.7 12.9 0.00 0.00 0.00 95 1011.4
20260503200820 13 196 9.7 12.9 0.00 0.00 0.00 95 1011.3
20260503195320 13 194 9.7 12.9 0.00 0.00 0.00 95 1011.3
20260503193821 13 197 9.7 12.9 0.00 0.00 0.00 95 1011.3
20260503192319 13 201 9.7 17.7 0.00 0.00 0.00 94 1011.2
20260503190820 13 203 9.7 17.7 0.00 0.00 0.00 94 1011.1
20260503185319 13 202 9.7 12.9 0.00 0.00 0.00 95 1011.0
20260503183819 13 201 6.4 17.7 0.00 0.00 0.00 96 1010.8
20260503182319 13 200 9.7 20.9 0.00 0.00 0.00 95 1010.7
20260503180818 13 203 12.9 20.9 0.00 0.00 0.00 94 1010.8
20260503175316 13 190 9.7 17.7 0.00 0.00 0.00 95 1010.7
20260503173817 13 194 9.7 20.9 0.00 0.00 0.00 94 1010.7
20260503172315 13 198 9.7 20.9 0.00 0.00 0.00 94 1010.8
20260503170814 13 180 9.7 20.9 0.00 0.00 0.00 95 1010.7
20260503150812 16 206 17.7 27.4 0.00 0.00 0.00 68 1010.2
20260503130805 20 215 12.9 27.4 0.00 0.00 0.00 68 1010.2
20260503110801 20 177 12.9 24.1 0.00 0.00 0.00 65 1010.3
20260503080754 17 145 9.7 12.9 0.00 0.00 0.00 79 1011.1
20260503072252 15 112 3.2 6.4 0.00 0.00 0.00 90 1011.3
20260503070752 15 110 3.2 6.4 0.00 0.00 0.00 91 1011.4
20260503053749 12 7 0.0 3.2 0.00 0.00 0.00 99 1011.4
20260503052248 12 7 0.0 3.2 0.00 0.00 0.00 99 1011.4
20260503050748 12 10 3.2 6.4 0.00 0.00 0.00 98 1011.4
20260503045248 12 78 3.2 6.4 0.00 0.00 0.00 96 1011.4
20260503043748 12 100 0.0 3.2 0.00 0.00 0.00 96 1011.5
20260503042247 12 137 3.2 12.9 0.00 0.00 0.00 97 1011.7
20260503040747 12 139 6.4 12.9 0.00 0.00 0.00 96 1011.6
20260503035247 12 125 6.4 9.7 0.03 0.00 0.00 97 1011.5
20260503033748 12 124 3.2 6.4 0.00 0.00 0.00 99 1011.9
20260503032246 12 118 3.2 9.7 0.00 0.00 0.00 99 1011.9
20260503030745 12 69 6.4 12.9 0.20 0.00 0.00 99 1012.4
20260503025245 12 47 6.4 6.4 0.36 0.00 0.00 99 1012.3
20260503023745 11 246 6.4 9.7 0.00 0.00 0.00 99 1013.2
20260503022245 11 226 3.2 6.4 0.00 0.00 0.00 99 1013.0
20260503020745 11 157 3.2 3.2 0.00 0.00 0.00 99 1012.6
20260503015244 10 155 3.2 3.2 0.00 0.00 0.00 98 1012.7
20260503013745 10 150 3.2 6.4 0.00 0.00 0.00 97 1012.8
20260503012242 11 154 3.2 9.7 0.00 0.00 0.00 98 1012.9
20260503010742 12 124 6.4 9.7 0.00 0.00 0.00 97 1012.7
20260503005241 12 108 3.2 6.4 0.00 0.00 0.00 98 1013.0
20260503003741 12 141 3.2 6.4 0.00 0.00 0.00 98 1013.7
20260503002241 12 195 3.2 9.7 0.00 0.00 0.00 95 1013.8
20260503000741 13 218 6.4 9.7 0.00 0.00 0.00 95 1014.3
20260502235241 12 218 6.4 9.7 0.00 0.00 0.00 97 1014.5
20260502233741 13 176 3.2 9.7 0.00 0.00 0.00 95 1014.1